Regional Weather Roundup
Issued by NWS Charleston, SC

Current Version | Previous Version | Graphics & Text | Print | Product List | Glossary On
Versions: 1 2 3 4 5 6 7 8 9 10 11 12 13 14 15 16 17 18 19 20 21 22 23 24 25 26 27 28 29 30 31 32 33 34 35 36 37 38 39 40 41 42 43 44 45 46 47 48 49 50
000
ASUS42 KCHS 242010
RWRCHS
REGIONAL WEATHER ROUNDUP
NATIONAL WEATHER SERVICE CHARLESTON SC
400 PM EDT THU JUL 24 2014

NOTE: "FAIR" INDICATES FEW OR NO CLOUDS BELOW 12,000 FEET WITH NO
SIGNIFICANT WEATHER AND/OR OBSTRUCTIONS TO VISIBILITY.

NOT ALL STATIONS ARE QUALITY CONTROLLED BY THE NATIONAL
WEATHER SERVICE. USE DATA WITH CAUTION...ESPECIALLY
DEWPOINT OBSERVATIONS.

SCZ027-030-031-034>040-042>050-242100-
...SOUTH CAROLINA...

CITY           SKY/WX    TMP DP  RH WIND       PRES   REMARKS
N CHARLESTON   MOSUNNY   93  76  57 SW12G22   29.90F HX 105
WATERFRONT PRK   N/A     88 N/A N/A S15G23      N/A
FORT JOHNSON   NOT AVBL
MOUNT PLEASANT FAIR      90  75  62 S14       29.90F HX 100
JOHNS ISLAND   CLEAR     90  72  55 S15       29.92F HX  96
PINOPOLIS        N/A     91  73  55 SW10      29.83F HX 100
MONCKS CORNER    N/A     93  75  55 W8        29.89F HX 104
SUMMERVILLE    FAIR      93  73  52 SW5       29.90F HX 102
BEAUFORT MCAS  PTSUNNY   94  72  48 W12G20    29.91F HX 102
BEAUFORT ARPT  FAIR      91  73  55 SW7G18    29.91F HX 100
HILTON HEAD IS MOSUNNY   91  79  66 S7        29.94F HX 107
GEORGETOWN     NOT AVBL
WALTERBORO       N/A     95  63  34 SW10      29.91F HX  96
ORANGEBURG     MOSUNNY   91  68  46 SW14      29.89F HX  95
BARNWELL       FAIR      93  70  46 SW14      29.90F HX  99
AIKEN          FAIR      91  70  49 SW13      29.93F HX  97
MANNING        FAIR      93  73  52 SW12G17   29.88F HX 102
KINGSTREE      NOT AVBL
COLUMBIA       MOSUNNY   96  68  39 W18       29.87F HX 101
SUMTER         MOSUNNY   93  72  49 SW15G24   29.85F HX 101
FLORENCE       MOSUNNY   85  71  63 S3        29.87S HX  90
MYRTLE BEACH   MOSUNNY   93  70  46 SW12      29.87F HX  99
N MYRTLE BEACH MOSUNNY   89  77  67 SW22      29.87F HX 101

$$

GAZ063-065-086>088-099>101-113>116-118-119-134-136>141-150-242100-
...GEORGIA...

CITY           SKY/WX    TMP DP  RH WIND       PRES   REMARKS
SAVANNAH ARPT  MOSUNNY   94  70  45 W12G20    29.92F HX 100
HUNTER AAF     MOSUNNY   93  73  51 SW9G18    29.91F HX 101
FORT STEWART   MOSUNNY   93  70  47 SW14      29.92F HX  99
STATESBORO     NOT AVBL
SYLVANIA       PTCLDY    91  74  55 W8G17     29.93F HX 100
CLAXTON        FAIR      93  72  49 W8        29.93F HX 100
THOMSON        MOSUNNY   92  76  59 SW6       29.95F HX 104
AUGUSTA-BUSH   MOSUNNY   92  69  47 SW16      29.89F HX  97
AUGUSTA-DANIEL PTSUNNY   91  68  46 SW9G16    29.91F HX  95
SWAINSBORO     FAIR      95  72  46 W9G16     29.94F HX 103
VIDALIA          N/A     91  72  52 SW13      29.94F HX  98
ALMA           MOSUNNY   92  67  43 SW8G22    29.94F HX  95
WAYCROSS       PTSUNNY   96  73  47 W8        29.95F HX 106
JESUP          NOT AVBL
BRUNSWICK      SUNNY     95  66  38 CALM      29.95F HX  98
SAINT SIMONS   MOSUNNY   93  69  45 SW14G20   29.95F HX  98

$$

SCZ027-028-034-036>038-045-046-048>050-GAZ119-141-242100-
...LAKE AND SUPPLEMENTAL COASTAL OBSERVATIONS...

STATION/POSITION TIME  TEMP    WIND        PRES    WAVE   SWELL
                       AIR SEA DIR/SP/G            HT/PER HT/PER/DIR
                 (UTC) (F)     (DEG/KT/KT) (MB)    (FT/S) (FT/S/D)
UPR LAKE MARION  NOT AVBL
WINYAH BAY       1900   92     240/ 10     1012.0S
LAKE MURRAY      1900   89     240/ 10/ 17 1011.2F
ACE BASIN NERRS  1900   92     230/  2     1014.0S
FORT PULASKI     2000   91     230/  9/ 14 1013.6F
SAPELO ISLAND    1900   92     250/ 11     1015.0F

$$

ANZ835-935-AMZ111-154-330-350-352-354-374-450-454-472-242100-
...C-MAN AND BUOY OBSERVATIONS...

STATION/POSITION TIME  TEMP    WIND        PRES    WAVE   SWELL
                       AIR SEA DIR/SP/G            HT/PER HT/PER/DIR
                 (UTC) (F)     (DEG/KT/KT) (MB)    (FT/S) (FT/S/D)
FOLLY BEACH CMAN 1900   85     200/ 17/ 20 1013.9F
BUOY 41004       2000   83 83  210/ 17/ 19 1012.7F   3/ 6   2/11
BUOY 41008       2000   84 85  190/ 14/ 17 1014.2F   2/ 7   2/110/ 7
5E ST. MARYS GA  2000      87                N/A     2/ 7
FRYING PAN BUOY  NOT AVBL
BUOY 41025       2000          VRB  8/ 10  1011.9F   4/ 7   3/160/ 7
CAPE LOOKOUT NC  1900   78     350/ 11/ 12 1013.3R
BUOY 41002       1851   82 82  240/ 17/ 21 1016.2    5/ 6   2/ 80/13
BUOY 41010       2000   83 84  200/ 14/ 16 1016.7F   3/ 7   2/140/ 7
BUOY 41012       NOT AVBL
ST AUGUSTINE FL  2000   84     150/ 13/ 14 1015.8F
CAPERS NEARSHORE 1900   85     230/ 17/ 21   N/A
FRIPP NEARSHORE  NOT AVBL


$$



USA.gov is the U.S. government's official web portal to all federal, state and local government web resources and services.